Regional Weather Roundup
Issued by NWS Albany, NY

Home | Current Version | Previous Version | Text Only | Print | Product List | Glossary On
Versions: 1 2 3 4 5 6 7 8 9 10 11 12 13 14 15 16 17 18 19 20 21 22 23 24 25 26 27 28 29 30 31 32 33 34 35 36 37 38 39 40 41 42 43 44 45 46 47 48 49 50
000
ASUS41 KALY 191310
RWRALY

NEW YORK STATE HOURLY WEATHER ROUNDUP
NATIONAL WEATHER SERVICE ALBANY NY
800 AM EST SUN FEB 19 2017

NOTE: "FAIR" INDICATES FEW OR NO CLOUDS BELOW 12,000 FEET WITH NO
SIGNIFICANT WEATHER AND/OR NO OBSTRUCTIONS TO VISIBILITY.

NYZ032-033-038>043-046>054-057>066-NYZ062>081-082-084-191400-
EAST


CITY           SKY/WX    TMP DP  RH WIND       PRES   REMARKS
ALBANY         CLOUDY    33  30  88 CALM      29.76R
GLENS FALLS    CLOUDY    27  23  85 CALM      29.72R
POUGHKEEPSIE   CLOUDY    32  29  88 CALM      29.76R
NEWBURGH       MOSUNNY   46  37  71 W9        29.78R
MONTGOMERY     CLOUDY    32  28  85 CALM      29.77R
WHITE PLAINS   PTSUNNY   52  35  52 W7        29.76R
ISLIP          CLOUDY    46  36  68 W7        29.76R
NEW YORK CITY  CLOUDY    56  35  45 W6        29.79R
CENTRAL PARK   CLOUDY    57  35  43 W5        29.81R
$$

NYZ005>009-017-018-044>046-055-056-191400-
CENTRAL


CITY           SKY/WX    TMP DP  RH WIND       PRES   REMARKS
FULTON         PTCLDY    43  35  73 W13       29.80R
SYRACUSE       PTSUNNY   42  35  76 W12       29.79R
ROME           CLOUDY    24  23  96 CALM      29.80R
ELMIRA         CLOUDY    33  30  88 SW5       29.83R WCI  29
BINGHAMTON     MOSUNNY   41  35  79 W9        29.79R
MONTICELLO     CLOUDY    43  36  75 W7        29.79R
$$

NYZ026>034-041>043-087-191400-
NORTH


CITY           SKY/WX    TMP DP  RH WIND       PRES   REMARKS
WATERTOWN      CLEAR     38  35  89 SW6       29.77R WCI  33
FORT DRUM      NOT AVBL
OGDENSBURG     FAIR      38  35  89 SW7       29.71R WCI  33
MASSENA        MOSUNNY   37  33  85 SW10      29.70R WCI  30
SARANAC LAKE   CLOUDY    36  34  92 SW9       29.66R WCI  29
PLATTSBURGH    CLOUDY    44  34  67 SW8       29.66R
$$

NYZ001>004-010>016-019>021-085-191400-
WEST


CITY           SKY/WX    TMP DP  RH WIND       PRES   REMARKS
NIAGARA FALLS  CLEAR     36  33  89 SW5       29.86R FOG     WCI  32
BUFFALO        PTCLDY    36  33  89 SW10      29.87R WCI  28
DUNKIRK        PTCLDY    42  37  82 SW8       29.90R
JAMESTOWN      PTCLDY    37  34  87 SW9       29.87R WCI  31
WELLSVILLE     PTCLDY    44  37  76 W9        29.85R
ROCHESTER      MOCLDY    41  36  82 W9        29.83R
PENN YAN       CLOUDY    43  34  70 S8        29.82R
$$

             KEY
       WCI = WIND CHILL INDEX
       VSB = VISIBILITY
       HX  = HEAT INDEX
$$



USA.gov is the U.S. government's official web portal to all federal, state and local government web resources and services.